Preview of NWS' New Version of Forecast
This preview is not operational and should not be used for support decisions.
Latest weather observations around

Demopolis Municipal Airport (KDYA)

Using International System of Units (Switch to English Units)
Date/ Time (CST) Wind (kph) Vis. (km) Weather Sky Cond. Temp (°C) Rel. Humidity Wind Chill (°C) Heat Index (°C) Pressure Precip. (cm)
Air Dwpt 6 hour Altimeter (hPa) Sea level (hPa) 1 hr 3 hr 6 hr
Max Min
Jan 21 22:15 ESE 5 16.09 Clear CLR -2 -2     96% -3   1027.4        
Jan 21 21:55 Calm 16.09 Clear CLR -1 -2     95%     1027.4        
Jan 21 21:35 Calm 16.09 Clear CLR -1 -2     95%     1027.4        
Jan 21 21:15 Calm 16.09 Clear CLR -1 -2     94%     1027.8        
Jan 21 20:55 Calm 16.09 Clear CLR -1 -2     94%     1027.8        
Jan 21 20:35 Calm 16.09 Clear CLR 0 -2     92%     1027.8        
Jan 21 20:15 Calm 16.09 Clear CLR 0 -1     93%     1027.8        
Jan 21 19:55 Calm 16.09 Clear CLR 0 -1     91%     1027.8        
Jan 21 19:35 Calm 16.09 Clear CLR 0 -1     91%     1027.8        
Jan 21 19:15 Calm 16.09 Clear CLR 1 -1     90%     1027.8        
Jan 21 18:55 Calm 16.09 Clear CLR 1 -1     91%     1027.4        
Jan 21 18:35 Calm 16.09 Clear CLR 1 -1     83%     1027.8        
Jan 21 18:15 Calm 16.09 Clear CLR 2 -1     86%     1027.8        
Jan 21 17:55 Calm 16.09 Clear CLR 3 -1     77%     1027.8        
Jan 21 17:35 Calm 16.09 Clear CLR 4 -1     70%     1028.1        
Jan 21 17:15 Calm 16.09 Clear CLR 6 -2     58%     1028.1        
Jan 21 16:55 Calm 16.09 Clear CLR 7 -3     50%     1028.5        
Jan 21 16:35 Calm 16.09 Clear CLR 8 -3     45%     1028.8        
Jan 21 16:15 E 5 16.09 Clear CLR 8 -4     43% 7   1028.5        
Jan 21 15:55 Calm 16.09 Clear CLR 8 -3     46%     1028.5        
Jan 21 15:35 E 5 16.09 Clear CLR 9 -4     41% 8   1028.1        
Jan 21 15:15 E 5 16.09 Clear CLR 9 -4     40% 8   1028.5        
Jan 21 14:55 NE 8 16.09 Clear CLR 9 -4     41% 8   1028.8        
Jan 21 14:35 E 5 16.09 Clear CLR 8 -4     42% 8   1028.8        
Jan 21 14:15 NE 8 16.09 Clear CLR 8 -5     39% 7   1029.1        
Jan 21 13:55 Calm 16.09 Clear CLR 8 -5     41%     1029.5        
Jan 21 13:35 Calm 16.09 Clear CLR 7 -5     42%     1029.8        
Jan 21 13:15 ENE 9 16.09 Clear CLR 7 -5     45% 5   1030.1        
Jan 21 12:55 NNE 5 16.09 Clear CLR 6 -5     46% 5   1030.5        
Jan 21 12:35 ENE 9 16.09 Clear CLR 6 -5     45% 4   1030.8        
Jan 21 12:15 Calm 16.09 Clear CLR 6 -5     46%     1031.2        
Jan 21 11:55 Calm 16.09 Clear CLR 5 -5     47%     1031.5        
Jan 21 11:35 N 8 16.09 Clear CLR 4 -6     49% 2   1031.8        
Jan 21 11:15 Calm 16.09 Clear CLR 4 -6     51%     1032.2        
Jan 21 10:55 NE 8 16.09 Clear CLR 4 -6     50% 2   1032.2        
Jan 21 10:35 E 9 16.09 Clear CLR 3 -6     51% 1   1032.2        
Jan 21 10:15 NNE 8 16.09 Clear CLR 3 -6     54% 0   1032.2        
Jan 21 09:55 ENE 11 16.09 Clear CLR 2 -6     55% -1   1031.8        
Jan 21 09:35 NNE 9 16.09 Clear CLR 2 -5     59% -1   1031.5        
Jan 21 09:15 NE 9 16.09 Clear CLR 1 -5     65% -2   1031.5        
Jan 21 08:55 N 13 16.09 Clear CLR 0 -4     72% -4   1031.5        
Jan 21 08:35 NNE 8 16.09 Clear CLR 0 -4     76% -3   1031.5        
Jan 21 08:15 NNE 5 16.09 Clear CLR -1 -4     83% -3   1031.2        
Jan 21 07:55 Calm 16.09 Clear CLR -2 -4     86%     1030.8        
Jan 21 07:35 Calm 16.09 Clear CLR -3 -4     89%     1031.2        
Jan 21 07:15 Calm 16.09 Clear CLR -3 -5     89%     1030.5        
Jan 21 06:55 Calm 16.09 Clear CLR -3 -5     91%     1030.1        
Jan 21 06:35 Calm 16.09 Clear CLR -3 -4     93%     1029.5        
Jan 21 06:15 Calm 16.09 Clear CLR -3 -4     93%     1029.1        
Jan 21 05:55 Calm 16.09 Clear CLR -3 -4     93%     1028.8        
Jan 21 05:35 Calm 16.09 Clear CLR -3 -4     93%     1028.8        
Jan 21 05:15 Calm 16.09 Clear CLR -3 -4     95%     1028.5        
Jan 21 04:55 Calm 16.09 Clear CLR -4 -4     96%     1028.1        
Jan 21 04:35 Calm 16.09 Clear CLR -3 -4     93%     1028.1        
Jan 21 04:15 Calm 16.09 Clear CLR -3 -4     94%     1028.1        
Jan 21 03:55 Calm 16.09 Clear CLR -3 -4     94%     1027.8        
Jan 21 03:35 Calm 16.09 Clear CLR -3 -4     93%     1027.4        
Jan 21 03:15 Calm 16.09 Clear CLR -2 -4     89%     1027.8        
Jan 21 02:55 Calm 16.09 Clear CLR -2 -4     90%     1027.8        
Jan 21 02:35 Calm 16.09 Clear CLR -2 -4     87%     1027.8        
Jan 21 02:15 Calm 16.09 Clear CLR -2 -4     85%     1027.8        
Jan 21 01:55 Calm 16.09 Clear CLR -2 -4     84%     1027.8        
Jan 21 01:35 Calm 16.09 Clear CLR -2 -4     83%     1027.8        
Jan 21 01:15 NNW 5 16.09 Clear CLR -1 -4     80% -3   1027.4        
Jan 21 00:55 NNW 8 16.09 Clear CLR -1 -4     81% -4   1027.1        
Jan 21 00:35 NNW 5 16.09 Clear CLR -2 -3     92% -4   1027.1        
Jan 21 00:15 Calm 16.09 Clear CLR -2 -3     93%     1027.1        
Jan 20 23:55 Calm 16.09 Clear CLR -2 -4     91%     1027.1        
Jan 20 23:35 Calm 16.09 Clear CLR -2 -3     91%     1027.1        
Jan 20 23:15 Calm 16.09 Clear CLR -2 -3     93%     1026.8        
Jan 20 22:55 Calm 16.09 Clear CLR -2 -3     94%     1027.1        
Jan 20 22:35 Calm 16.09 Clear CLR -2 -3     93%     1026.8        
Jan 20 22:15 Calm 16.09 Clear CLR -2 -4     88%     1026.8        
Jan 20 21:55 Calm 16.09 Clear CLR -2 -3     88%     1026.8        
Jan 20 21:35 Calm 16.09 Clear CLR -1 -4     80%     1026.8        
Jan 20 21:15 Calm 16.09 Clear CLR 0 -4     73%     1026.8        
Jan 20 20:55 Calm 16.09 Clear CLR 0 -4     73%     1026.4        
Jan 20 20:35 N 5 16.09 Clear CLR 1 -4     71% -1   1026.4        
Jan 20 20:15 N 8 16.09 Clear CLR 1 -4     72% -2   1026.4        
Jan 20 19:55 N 5 16.09 Clear CLR 1 -4     73% -1   1026.1        
Jan 20 19:35 N 5 16.09 Clear CLR 1 -4     69% -1   1026.1        
Jan 20 19:15 N 5 16.09 Clear CLR 1 -4     72% -1   1025.7        
Jan 20 18:55 Calm 16.09 Clear CLR 1 -4     70%     1025.7        
Jan 20 18:35 Calm 16.09 Clear CLR 2 -4     66%     1025.4        
Jan 20 18:15 Calm 16.09 Clear CLR 2 -5     62%     1025.7        
Jan 20 17:55 NNW 9 16.09 Clear CLR 3 -5     59% 0   1025.4        
Jan 20 17:35 Calm 16.09 Clear CLR 3 -5     57%     1025.1        
Jan 20 17:15 NW 8 16.09 Clear CLR 3 -5     55% 1   1025.1        
Jan 20 16:55 NW 15 16.09 Clear CLR 4 -5     53% 0   1024.4        
Jan 20 16:35 NNW 15 16.09 Clear CLR 4 -5     53% 1   1024.4        
Jan 20 16:15 WNW 17 16.09 Clear CLR 5 -5     52% 1   1024.4        
Jan 20 15:55 NW 17 16.09 Clear CLR 5 -4     54% 1   1024.1        
Jan 20 15:35 WNW 13 16.09 Clear CLR 5 -4     53% 2   1024.1        
Jan 20 15:15 WNW 18 16.09 Clear CLR 5 -4     54% 1   1024.1        
Jan 20 14:55 N 9 16.09 Clear CLR 4 -4     56% 2   1024.1        
Jan 20 14:35 NNW 15 16.09 Clear CLR 4 -4     56% 1   1024.1        
Jan 20 14:15 NW 17 16.09 Partly Cloudy SCT028 3 -4     58% 0   1023.7        
Jan 20 13:55 WNW 17 16.09 Mostly Cloudy BKN026 3 -4     61% -1   1024.1        
Jan 20 13:35 NW 18 16.09 Cloudy OVC026 3 -3     64% -1   1023.4        
Jan 20 13:15 NNW 18 16.09 Cloudy OVC026 3 -4     63% -2   1023.4        
Jan 20 12:55 W 21 16.09 Cloudy OVC026 2 -3     66% -3   1023.7        
Jan 20 12:35 NW 21 16.09 Cloudy OVC026 2 -4     65% -3   1024.1        
Jan 20 12:15 NW 18 16.09 Cloudy OVC026 2 -4     65% -2   1024.1        
Jan 20 11:55 NW 17 16.09 Cloudy OVC026 2 -4     65% -2   1024.1        
Jan 20 11:35 NNW 13 16.09 Cloudy OVC026 2 -3     67% -1   1024.4        
Jan 20 11:15 NW 18 16.09 Cloudy OVC026 2 -3     68% -2   1024.7        
Jan 20 10:55 NW 11 16.09 Cloudy OVC024 2 -3     69% -1   1025.1        
Jan 20 10:35 NW 9 16.09 Cloudy OVC024 2 -3     70% -1   1024.7        
Jan 20 10:15 NW 17 16.09 Cloudy OVC024 2 -3     70% -3   1024.4        
Jan 20 09:55 NW 17 16.09 Cloudy OVC024 2 -3     71% -3   1024.4        
Jan 20 09:35 NW 15 16.09 Cloudy OVC024 1 -3     72% -3   1024.1        
Jan 20 09:15 NNW 18 16.09 Cloudy OVC024 1 -3     72% -3   1023.7        
Jan 20 08:55 NW 17 16.09 Cloudy OVC024 1 -3     72% -3   1023.7        
Jan 20 08:35 NNW 22 16.09 Cloudy OVC024 1 -3     72% -4   1023        
Jan 20 08:15 NW 21 16.09 Cloudy OVC024 1 -3     71% -4   1022.7        
Jan 20 07:55 NNW 18 16.09 Cloudy OVC024 1 -3     71% -3   1022.4        
Jan 20 07:35 NW 18 16.09 Cloudy OVC024 1 -3     71% -3   1021.7        
Jan 20 07:15 NNW 26 16.09 Cloudy OVC022 2 -3     73% -4   1021.3        
Jan 20 06:55 NW 22 16.09 Cloudy OVC020 2 -3     74% -4   1021        
Jan 20 06:35 NW 21 16.09 Cloudy OVC020 2 -2     76% -3   1020.7        
Jan 20 06:15 NNW 18 16.09 Cloudy OVC022 2 -2     75% -3   1020        
Jan 20 05:55 NW 24 16.09 Cloudy OVC022 2 -2     74% -4   1019.7        
Jan 20 05:35 NW 13 16.09 Cloudy OVC022 2 -2     75% -2   1019        
Jan 20 05:15 NW 26 16.09 Cloudy OVC022 2 -2     74% -3   1019        
Jan 20 04:55 NW 17 16.09 Cloudy OVC022 2 -2     75% -2   1018.3        
Jan 20 04:35 WNW 17 16.09 Cloudy OVC022 2 -2     76% -2   1018        
Jan 20 04:15 NW 15 16.09 Cloudy OVC022 2 -2     75% -2   1017.3        
Jan 20 03:55 NW 17 16.09 Cloudy OVC024 2 -2     74% -2   1017.3        
Jan 20 03:35 WNW 18 16.09 Cloudy OVC024 2 -2     73% -2   1016.9        
Jan 20 03:15 NW 18 16.09 Cloudy OVC024 2 -2     73% -2   1016.9        
Jan 20 02:55 NW 21 16.09 Cloudy OVC024 2 -2     74% -3   1016.9        
Jan 20 02:35 NW 21 16.09 Cloudy OVC024 2 -2     73% -2   1016.6        
Jan 20 02:15 WNW 26 16.09 Cloudy OVC024 3 -2     72% -3   1016.3        
Jan 20 01:55 NW 22 16.09 Cloudy OVC024 3 -2     72% -2   1016.3        
Jan 20 01:35 NW 32 16.09 Cloudy and Windy OVC024 3 -2     73% -3   1015.9        
Jan 20 01:15 WNW 26 16.09 Cloudy OVC024 3 -2     72% -3   1015.6        
Jan 20 00:55 WNW 18 16.09 Cloudy OVC026 3 -2     72% -1   1015.2        
Jan 20 00:35 NW 21 16.09 Cloudy OVC028 3 -1     73% -2   1014.9        
Jan 20 00:15 NW 13 16.09 Cloudy SCT018 BKN029 OVC037 3 0     78% 0   1014.9        
Jan 19 23:55 WNW 21 16.09 Light Rain SCT020 BKN024 OVC037 3 0     80% -2   1014.2        
Jan 19 23:35 WNW 17 16.09 Light Drizzle BKN022 OVC028 3 0     79% -1   1013.9        
Jan 19 23:15 WNW 21 16.09 Cloudy OVC024 4 0     74% 0   1013.6        
Jan 19 22:55 NW 28 16.09 Cloudy BKN026 OVC031 4 0     74% -1   1013.2        
Jan 19 22:35 WNW 24 16.09 Cloudy BKN028 OVC033 5 0     73% 0   1012.9        
Jan 19 22:15 NW 32 16.09 Cloudy and Windy BKN021 BKN030 OVC055 5 1     75% 0   1012.2        
Jan 19 21:55 W 22 16.09 Cloudy BKN021 OVC034 6 2     76% 2   1011.5        
Jan 19 21:35 WNW 24 16.09 Cloudy SCT017 BKN025 OVC034 6 2     75% 2   1011.2        
Jan 19 21:15 WNW 22 16.09 Cloudy BKN017 OVC025 7 4     80% 3   1010.5        
Jan 19 20:55 WNW 28 16.09 Light Drizzle OVC019 7 4     82% 3   1010.2        
Jan 19 20:35 WNW 24 16.09 Cloudy OVC023 8 4     75% 4   1009.5        
Jan 19 20:15 WNW 21 16.09 Cloudy SCT017 BKN023 OVC030 8 4     77% 5   1009.5        
Jan 19 19:55 W 22 16.09 Cloudy BKN017 BKN025 OVC040 9 5     80% 5   1008.8        
Jan 19 19:35 W 28 16.09 Cloudy SCT017 BKN030 OVC035 9 6     80% 5   1008.5        
Jan 19 19:15 WNW 28 16.09 Cloudy BKN014 OVC020 9 7     87% 6   1007.8        
Jan 19 18:55 WNW 24 11.27 Cloudy OVC020 10 8     82%     1007.1        
Jan 19 18:35 WNW 26 16.09 Cloudy OVC022 12 8     76%     1006.4        
Jan 19 18:15 W 22 16.09 Mostly Cloudy BKN022 BKN029 BKN060 12 9     78%     1005.8        
Jan 19 17:55 W 18 16.09 Mostly Cloudy SCT026 BKN031 BKN070 13 8     75%     1005.1        
Jan 19 17:35 W 32 16.09 Cloudy and Windy BKN026 BKN033 OVC050 14 9     74%     1004.4        
Jan 19 17:15 W 26 16.09 Cloudy SCT026 BKN033 OVC050 14 10     74%     1003.7        
Jan 19 16:55   16.09 Light Rain SCT023 BKN030 OVC036 16 13     83%     1002.7        
Jan 19 16:35 SSW 8 16.09 Cloudy BKN035 OVC060 16 13     84%     1002.4        
Jan 19 16:15 SSW 5 16.09 Cloudy SCT018 SCT024 OVC060 16 13     84%     1002        
Jan 19 15:55 Calm 16.09 Cloudy SCT010 BKN021 OVC026 16 14     86%     1002        
Jan 19 15:35 S 5 16.09 Cloudy SCT010 BKN015 OVC030 16 14     90%     1002.4        
Jan 19 15:15 SSW 9 16.09 Mostly Cloudy SCT008 SCT031 BKN110 16 14     90%     1002.7        
Jan 19 14:55 SSW 11 16.09 Cloudy OVC110 15 14     94%     1002.4        
Jan 19 14:35 SSW 9 16.09 Cloudy OVC095 15 14     94%     1002        
Jan 19 14:15 S 5 16.09 Cloudy OVC095 14 14     96%     1002        
Jan 19 13:55 S 8 16.09 Light Rain SCT010 BKN075 OVC095 14 14     97%     1002        
Jan 19 13:35 S 9 11.27 Light Rain SCT008 BKN014 OVC075 14 14     96%     1002.7        
Jan 19 13:15 Calm 6.44 Rain SCT008 BKN049 OVC055 15 14     94%     1003.1        
Jan 19 12:55 Calm 16.09 Rain SCT036 BKN050 OVC055 15 14     94%     1002.7        
Jan 19 12:35 WSW 9 16.09 Rain SCT007 BKN036 OVC044 15 14     95%     1003.7        
Jan 19 12:15 SW 21 8.05 Heavy Rain SCT006 BKN010 OVC031 14 14     94%     1004.8        
Jan 19 11:55 WSW 15 2.01 Heavy Rain SCT004 BKN008 OVC012 15 13     92%     1005.1        
Jan 19 11:35 S 9 11.27 Heavy Rain BKN014 OVC020 18 17     93%     1004.4        
Jan 19 11:15 SSE 21 16.09 Rain SCT010 BKN017 OVC024 18 17     93%     1004.1        
Jan 19 10:55 S 17 8.05 Heavy Rain SCT018 BKN025 OVC031 18 17     92%     1005.1        
Jan 19 10:35 SSE 15 11.27 Rain SCT020 BKN026 OVC040 18 17     90%     1005.8        
Jan 19 10:15 S 22 16.09 Light Rain SCT022 BKN028 OVC070 19 16     86%     1006.1        
Jan 19 09:55 S 22 16.09 Rain BKN020 BKN060 OVC070 19 16     82%     1006.4        
Jan 19 09:35 S 22 16.09 Light Rain BKN018 BKN050 OVC060 19 16     84%     1006.8        
Jan 19 09:15 SSE 24 16.09 Cloudy OVC016 19 16     85%     1007.1        
Jan 19 08:55 S 18 16.09 Cloudy OVC016 18 16     88%     1007.5        
Jan 19 08:35 S 22 16.09 Cloudy OVC016 18 16     90%     1007.5        
Jan 19 08:15 SSE 21 16.09 Cloudy OVC014 18 17     93%     1007.5        
Jan 19 07:55 SSE 17 16.09 Rain OVC014 18 16     92%     1007.8        
Jan 19 07:35 SSE 15 16.09 Cloudy OVC014 17 16     93%     1008.1        
Jan 19 07:15 SSE 17 16.09 Cloudy SCT011 BKN014 OVC038 17 16     93%     1008.1        
Jan 19 06:55 S 13 16.09 Cloudy BKN013 BKN036 OVC075 17 16     94%     1008.1        
Jan 19 06:35 SSE 18 16.09 Light Rain OVC013 17 16     91%     1008.1        
Jan 19 06:15 SSE 15 16.09 Rain OVC011 17 16     90%     1008.1        
Jan 19 05:55 SSE 13 16.09 Cloudy OVC009 17 16     91%     1008.1        
Jan 19 05:35 SSE 17 16.09 Cloudy OVC009 17 16     91%     1008.1        
Jan 19 05:15 SSE 13 16.09 Cloudy OVC009 17 16     94%     1008.5        
Jan 19 04:55 SSE 13 16.09 Cloudy OVC007 16 16     95%     1008.5        
Jan 19 04:35 SSE 9 16.09 Cloudy OVC007 16 16     96%     1008.8        
Jan 19 04:15 SSE 17 11.27 Cloudy OVC005 16 16     100%     1009.2        
Jan 19 03:55 SSE 13 11.27 Cloudy OVC005 16 16     100%     1009.8        
Jan 19 03:35 SSE 17 8.05 Fog/Mist OVC005 15 15     100%     1010.5        
Jan 19 03:15 SSE 9 8.05 Fog/Mist OVC005 15 15     99%     1010.8        
Jan 19 02:55 SSE 9 11.27 Cloudy OVC005 15 15     99%     1011.2        
Jan 19 02:35 SSE 9 11.27 Cloudy OVC005 15 14     97%     1011.2        
Jan 19 02:15 SSE 11 11.27 Light Rain OVC007 15 14     95%     1011.9        
Jan 19 01:55 SE 9 16.09 Cloudy OVC009 14 13     95%     1011.9        
Jan 19 01:35 ESE 9 16.09 Cloudy BKN011 OVC023 14 13     94%     1012.2        
Jan 19 01:15 SE 9 11.27 Cloudy BKN013 OVC023 14 13     93%     1012.9        
Jan 19 00:55 SE 8 11.27 Heavy Rain BKN015 OVC020 14 13     91%     1013.2        
Jan 19 00:35 SE 9 16.09 Drizzle BKN021 OVC026 14 12     89%     1013.6        
Jan 19 00:15 SE 13 16.09 Cloudy SCT025 BKN055 OVC065 14 12     88%     1013.9        
Jan 18 23:55 SE 9 16.09 Cloudy SCT031 SCT042 OVC065 14 12     88%     1014.2        
Jan 18 23:35 SE 8 16.09 Cloudy SCT031 BKN044 OVC055 14 12     89%     1014.6        
Jan 18 23:15 SE 5 16.09 Mostly Cloudy SCT050 BKN055 13 12     92%     1014.9        
Jan 18 22:55 Calm 16.09 Partly Cloudy SCT040 SCT049 SCT060 12 10     92%     1014.9        
Jan 18 22:35 Calm 16.09 Clear CLR 13 11     89%     1014.9        
May 15 06:15 Calm 11.27 Clear   18 17     94%     1013.9        
May 14 20:15 Calm 16.09 Clear   24 20     76%   25 1012.9        
May 14 06:35 Calm 6.44 Fog/Mist CLR 17 17     100%     1016.6        
May 14 05:35 Calm 11.27 Clear   17 17     99%     1016.6        
May 14 00:35 Calm 11.27 Clear CLR 19 18     92%     1017.3        
May 13 20:35 Calm 16.09 Clear CLR 23 20     84%   23 1016.6        
May 13 20:15 Calm 16.09 Clear CLR 24 20     81%   24 1016.3        
May 13 18:55 Calm 16.09 Clear CLR 29 21     59%   32 1016.3        
May 13 17:15 NNE 5 16.09 Clear CLR 33 15     34%   32 1016.6        
May 13 16:35 ENE 5 16.09 Clear CLR 33 14     33%   32 1016.6        
May 13 13:35 N 5 16.09 Partly Cloudy SCT060 32 15     36%   32 1019        
May 13 12:15 N 8 16.09 Clear   31 15     39%   31 1020        
May 13 10:35 NNW 9 16.09 Clear CLR 29 17     48%   29 1020.7        
May 13 09:55 NW 8 16.09 Clear CLR 27 18     56%   28 1020.7        
May 13 08:15 Calm 16.09 Clear CLR 22 18     76%   23 1020.3        
May 13 06:35 Calm 8.05 Fog/Mist CLR 16 15     97%     1019.3        
May 13 02:15 Calm 16.09 Clear CLR 17 16     93%     1017.6        
May 12 21:35 Calm 16.09 Clear CLR 21 18     85%     1018.6        
Notice The following observation data may not be complete
May 12 20:15 Calm 16.09 Clear CLR   19      %     1018        
Notice The following observation data may not be complete
May 12 19:55 Calm 16.09 Clear CLR   19      %     1017.6        
May 12 16:55 SSW 8 16.09 Clear CLR 32 11     28%   31 1018        
May 12 15:35 Calm 16.09 Clear CLR 32        %     1018.6        
May 12 06:35 Calm 16.09 Clear CLR 13 12     94%     1020.7        
May 12 02:55 Calm 16.09 Clear CLR 14 13     90%     1018.3        
Notice The following observation data may not be complete
May 12 01:15 Calm 16.09 Clear CLR   13      %     1018.3        
May 11 20:55 Calm 16.09 Clear CLR 21 18     83%     1018        
Jun 11 23:15 SE 8 16.09 Clear   24 24     100%   25 1019.3        
Notice The following observation data may not be complete
Jun 11 20:35   16.09 Clear            %              
Jun 11 20:15 N 5 16.09 Clear   23 23     100%   25 1018        
Notice The following observation data may not be complete
Jun 11 19:35   16.09 Clear            %              
Jun 11 13:55 S 5 16.09 Clear   32 18     44%   33 1019        
Notice The following observation data may not be complete
Jun 11 05:15   16.09 Clear            %              
Jun 11 02:15 Calm 16.09 Clear   19 19     99%     1017.3        
Jun 11 00:35 Calm 16.09 Clear   20 19     96%     1017.6        
Jun 10 22:15 Calm 16.09 Clear   21 19     87%   22 1017.6        
Notice The following observation data may not be complete
Jun 10 20:35 Calm 16.09 Clear     19      %     1016.3        
Jun 10 17:55 SE 9 16.09 Clear   31 16     40%   31 1015.6        
Notice The following observation data may not be complete
Jun 10 15:15   16.09 Clear            %              
Jun 10 12:35 SSE 13 16.09 Clear   29 16     44%   29 1018        
Notice The following observation data may not be complete
Jun 10 11:15   16.09 Clear            %              
Jun 10 07:35 Calm 16.09 Clear   20 18     93%     1016.9        
Notice The following observation data may not be complete
Jun 10 03:55 Calm 16.09 Clear            %     1015.2        
Jun 09 22:35 Calm 16.09 Clear   18 18     98%     1014.9        
Jun 08 06:55 Calm 16.09 Clear   16 15     93%     1012.9        
Notice The following observation data may not be complete
Jun 08 06:35   16.09 Clear            %              
Notice The following observation data may not be complete
Jun 07 18:35   16.09 Clear            %              
Jun 07 14:55 N 17 16.09 Clear   28 15     43%   28 1009.2        
Notice The following observation data may not be complete
Jun 07 10:15   16.09 Clear            %              
Jun 06 14:35 NE 17 16.09 Clear   24 20     77%   25 1007.1        
Jun 06 13:35 NW 9 16.09 Clear   27 21     70%   30 1006.8        
Jun 06 10:15 NNW 8 16.09 Clear   25 23     88%   26 1008.1        
Jun 06 09:55 N 5 16.09 Clear   24 23     92%   25 1008.1        
Jun 05 16:35 WSW 5 16.09 Clear   26 21     78%   26 1007.5